Total_Precipitation_Accumulation
0.00 0.00 0.00 0.00 0.00 0.00 0.00 0.00 0.00 0.00 0.01 0.01 0.01 0.02 0.02 0.02 0.00 0.00 0.00 0.01 0.07 0.13 0.05 0.00 0.00 0.00 0.01 0.01 0.11 0.36 0.33 0.19 0.10 0.03 0.01 0.03 0.04 0.03 0.01 0.00 0.00 0.00 0.01 0.14 0.26
0.00 0.00 0.00 0.00 0.00 0.00 0.00 0.00 0.00 0.00 0.00 0.00 0.01 0.01 0.01 0.01 0.00 0.00 0.01 0.04 0.06 0.11 0.00 0.00 0.00 0.00 0.01 0.02 0.10 0.27 0.16 0.07 0.02 0.02 0.05 0.14 0.12 0.12 0.05 0.00 0.00 0.01 0.05 0.40 0.37
0.00 0.00 0.00 0.00 0.00 0.00 0.00 0.00 0.00 0.00 0.00 0.01 0.01 0.00 0.01 0.00 0.00 0.01 0.00 0.00 0.06 0.03 0.00 0.00 0.01 0.03 0.02 0.03 0.08 0.14 0.07 0.03 0.02 0.04 0.12 0.21 0.33 0.20 0.11 0.03 0.01 0.06 0.17 0.38 0.42
0.00 0.00 0.00 0.00 0.00 0.00 0.00 0.00 0.00 0.00 0.00 0.01 0.00 0.01 0.00 0.00 0.00 0.00 0.00 0.00 0.02 0.00 0.00 0.00 0.00 0.06 0.06 0.03 0.03 0.11 0.04 0.06 0.05 0.09 0.16 0.16 0.44 0.29 0.14 0.04 0.00 0.11 0.29 0.38 0.45
0.00 0.00 0.00 0.00 0.00 0.00 0.00 0.00 0.00 0.00 0.00 0.00 0.00 0.00 0.01 0.00 0.00 0.00 0.00 0.00 0.00 0.00 0.00 0.00 0.02 0.03 0.13 0.07 0.04 0.05 0.02 0.09 0.09 0.14 0.19 0.27 0.31 0.57 0.31 0.07 0.00 0.08 0.25 0.35 0.51
0.00 0.00 0.00 0.00 0.00 0.00 0.00 0.00 0.00 0.00 0.00 0.00 0.00 0.00 0.00 0.00 0.00 0.00 0.00 0.00 0.00 0.00 0.00 0.00 0.04 0.05 0.09 0.12 0.06 0.03 0.01 0.01 0.04 0.10 0.16 0.31 0.28 0.51 0.46 0.20 0.02 0.02 0.18 0.31 0.43
0.00 0.00 0.00 0.00 0.00 0.00 0.00 0.00 0.00 0.00 0.00 0.00 0.00 0.00 0.00 0.00 0.00 0.00 0.00 0.00 0.00 0.00 0.00 0.01 0.02 0.02 0.02 0.09 0.02 0.01 0.03 0.02 0.00 0.01 0.07 0.21 0.26 0.45 0.41 0.68 0.15 0.02 0.12 0.23 0.39
0.00 0.00 0.00 0.00 0.00 0.00 0.00 0.00 0.00 0.00 0.00 0.00 0.00 0.00 0.00 0.00 0.00 0.00 0.00 0.00 0.00 0.00 0.01 0.04 0.01 0.00 0.00 0.01 0.01 0.02 0.06 0.07 0.00 0.00 0.05 0.21 0.11 0.06 0.30 0.86 0.47 0.06 0.13 0.20 0.24
0.00 0.00 0.00 0.00 0.00 0.00 0.00 0.00 0.00 0.00 0.00 0.00 0.00 0.00 0.00 0.00 0.00 0.00 0.00 0.00 0.00 0.00 0.02 0.01 0.01 0.01 0.02 0.01 0.01 0.03 0.06 0.02 0.02 0.00 0.06 0.09 0.04 0.03 0.14 0.65 0.70 0.20 0.09 0.23 0.21
0.00 0.00 0.00 0.00 0.00 0.00 0.00 0.00 0.00 0.00 0.00 0.00 0.00 0.00 0.00 0.00 0.00 0.00 0.00 0.00 0.00 0.00 0.01 0.01 0.00 0.01 0.01 0.09 0.03 0.01 0.04 0.04 0.01 0.00 0.02 0.04 0.02 0.04 0.06 0.28 0.61 0.43 0.11 0.19 0.23
0.00 0.00 0.00 0.00 0.00 0.00 0.00 0.00 0.00 0.00 0.00 0.00 0.00 0.00 0.00 0.00 0.00 0.00 0.00 0.00 0.00 0.00 0.00 0.04 0.12 0.03 0.00 0.02 0.03 0.00 0.02 0.04 0.00 0.00 0.00 0.01 0.03 0.04 0.06 0.16 0.47 0.58 0.28 0.17 0.31
0.00 0.00 0.00 0.00 0.00 0.00 0.00 0.00 0.00 0.00 0.00 0.00 0.00 0.00 0.00 0.00 0.00 0.00 0.00 0.00 0.00 0.01 0.01 0.03 0.05 0.01 0.00 0.01 0.01 0.00 0.00 0.00 0.01 0.00 0.00 0.01 0.01 0.03 0.04 0.07 0.25 0.50 0.54 0.32 0.32
0.00 0.00 0.00 0.00 0.00 0.00 0.00 0.00 0.00 0.00 0.00 0.00 0.00 0.00 0.00 0.00 0.00 0.00 0.00 0.00 0.00 0.00 0.01 0.00 0.00 0.00 0.00 0.03 0.07 0.03 0.00 0.00 0.00 0.00 0.00 0.01 0.03 0.08 0.05 0.05 0.07 0.26 0.56 0.67 0.58
0.00 0.00 0.00 0.00 0.00 0.00 0.00 0.00 0.00 0.00 0.00 0.00 0.00 0.00 0.00 0.00 0.00 0.00 0.00 0.00 0.00 0.00 0.00 0.00 0.00 0.00 0.00 0.00 0.03 0.05 0.01 0.00 0.00 0.06 0.05 0.01 0.01 0.01 0.03 0.01 0.01 0.02 0.23 0.51 0.48
0.00 0.00 0.00 0.00 0.00 0.00 0.00 0.00 0.00 0.00 0.00 0.00 0.00 0.00 0.00 0.00 0.00 0.00 0.00 0.00 0.00 0.00 0.00 0.00 0.00 0.00 0.00 0.00 0.00 0.01 0.06 0.03 0.02 0.23 0.10 0.01 0.01 0.00 0.00 0.01 0.00 0.00 0.03 0.22 0.57
0.00 0.00 0.00 0.00 0.00 0.00 0.00 0.00 0.00 0.00 0.00 0.00 0.00 0.00 0.00 0.00 0.00 0.00 0.00 0.01 0.00 0.00 0.00 0.00 0.00 0.00 0.00 0.00 0.00 0.04 0.07 0.06 0.04 0.14 0.26 0.02 0.02 0.00 0.00 0.00 0.00 0.00 0.00 0.05 0.41
0.00 0.00 0.00 0.00 0.00 0.00 0.00 0.00 0.00 0.00 0.00 0.00 0.00 0.00 0.00 0.00 0.00 0.00 0.01 0.08 0.01 0.00 0.00 0.00 0.00 0.00 0.00 0.00 0.02 0.06 0.07 0.13 0.06 0.09 0.10 0.08 0.08 0.01 0.00 0.00 0.00 0.00 0.00 0.01 0.19
0.00 0.00 0.00 0.00 0.00 0.00 0.00 0.00 0.00 0.00 0.00 0.00 0.00 0.00 0.00 0.00 0.00 0.00 0.00 0.03 0.01 0.00 0.00 0.00 0.00 0.01 0.00 0.00 0.00 0.06 0.11 0.07 0.02 0.02 0.00 0.03 0.11 0.00 0.00 0.00 0.00 0.00 0.00 0.00 0.02
0.00 0.00 0.00 0.00 0.00 0.00 0.00 0.00 0.00 0.00 0.00 0.00 0.00 0.00 0.00 0.00 0.00 0.00 0.01 0.03 0.04 0.01 0.02 0.01 0.00 0.02 0.00 0.00 0.00 0.01 0.05 0.12 0.03 0.00 0.00 0.00 0.01 0.00 0.00 0.00 0.00 0.00 0.00 0.00 0.00
0.00 0.00 0.00 0.00 0.00 0.00 0.00 0.00 0.00 0.00 0.00 0.00 0.00 0.00 0.00 0.00 0.00 0.00 0.00 0.02 0.02 0.00 0.01 0.03 0.08 0.04 0.10 0.01 0.00 0.01 0.01 0.08 0.04 0.01 0.01 0.00 0.01 0.00 0.00 0.00 0.00 0.00 0.00 0.00 0.00
0.00 0.00 0.00 0.00 0.00 0.00 0.00 0.00 0.00 0.00 0.00 0.00 0.00 0.00 0.00 0.00 0.00 0.00 0.00 0.00 0.00 0.00 0.00 0.03 0.10 0.02 0.07 0.04 0.00 0.01 0.03 0.04 0.05 0.04 0.06 0.02 0.00 0.00 0.00 0.00 0.00 0.00 0.00 0.00 0.00
0.00 0.00 0.00 0.00 0.00 0.00 0.00 0.00 0.00 0.00 0.00 0.00 0.00 0.00 0.00 0.00 0.00 0.00 0.00 0.00 0.00 0.00 0.00 0.02 0.07 0.03 0.09 0.07 0.02 0.01 0.02 0.02 0.08 0.06 0.14 0.08 0.01 0.00 0.00 0.00 0.00 0.00 0.00 0.00 0.01
0.00 0.00 0.00 0.00 0.00 0.00 0.00 0.00 0.00 0.00 0.00 0.00 0.00 0.00 0.00 0.00 0.00 0.00 0.00 0.00 0.00 0.00 0.01 0.04 0.04 0.03 0.12 0.32 0.10 0.01 0.01 0.03 0.12 0.15 0.18 0.19 0.02 0.00 0.00 0.00 0.00 0.00 0.00 0.02 0.03
0.00 0.00 0.00 0.00 0.00 0.00 0.00 0.00 0.00 0.00 0.00 0.00 0.00 0.00 0.00 0.00 0.00 0.00 0.00 0.00 0.00 0.00 0.01 0.01 0.02 0.07 0.06 0.09 0.16 0.02 0.02 0.02 0.08 0.13 0.20 0.15 0.02 0.00 0.00 0.00 0.01 0.01 0.02 0.09 0.12
0.00 0.00 0.00 0.00 0.00 0.00 0.00 0.00 0.00 0.00 0.00 0.00 0.00 0.00 0.00 0.00 0.00 0.00 0.00 0.00 0.00 0.00 0.00 0.01 0.01 0.00 0.00 0.04 0.09 0.05 0.01 0.01 0.02 0.09 0.15 0.11 0.14 0.02 0.02 0.00 0.01 0.03 0.04 0.08 0.15
0.00 0.00 0.00 0.00 0.00 0.00 0.00 0.00 0.00 0.00 0.00 0.00 0.00 0.00 0.00 0.00 0.00 0.00 0.00 0.00 0.00 0.00 0.00 0.01 0.01 0.01 0.00 0.07 0.09 0.07 0.04 0.07 0.08 0.09 0.03 0.07 0.13 0.06 0.04 0.00 0.00 0.07 0.09 0.09 0.09
0.00 0.00 0.00 0.00 0.00 0.00 0.00 0.00 0.00 0.00 0.00 0.00 0.00 0.00 0.00 0.00 0.00 0.00 0.00 0.00 0.00 0.02 0.03 0.01 0.05 0.03 0.01 0.07 0.28 0.15 0.21 0.20 0.08 0.15 0.05 0.05 0.06 0.05 0.03 0.01 0.00 0.07 0.11 0.05 0.05